This is the latest recevied weather packets stored in our database for station/object JQ1YUX-13. If no packets are shown the sender has not sent any weather packets the latest 10 day(s).
| Time | Temp. | Humidity | Pressure | Rain* | Wind** | Luminosity | Snow |
|---|---|---|---|---|---|---|---|
| 1787474145 | 30.56° C | 83% | 1014.1 hPa | 0 mm | - | - | - |
| 1787473245 | 31.11° C | 79% | 1013.9 hPa | 0 mm | - | - | - |
| 1787472346 | 31.11° C | 76% | 1013.8 hPa | 0 mm | - | - | - |
| 1787471491 | 31.67° C | 75% | 1013.8 hPa | 0 mm | - | - | - |
| 1787471446 | 31.67° C | 75% | 1013.9 hPa | 0 mm | - | - | - |
| 1787470544 | 31.67° C | 76% | 1014.1 hPa | 0 mm | - | - | - |
| 1787469692 | 31.11° C | 77% | 1014.1 hPa | 0 mm | - | - | - |
| 1787469645 | 31.11° C | 76% | 1014.1 hPa | 0 mm | - | - | - |
| 1787468745 | 31.11° C | 76% | 1014.2 hPa | 0 mm | - | - | - |
| 1787467845 | 31.11° C | 77% | 1014 hPa | 0 mm | - | - | - |
| 1787466946 | 31.11° C | 77% | 1013.9 hPa | 0 mm | - | - | - |
| 1787466091 | 31.11° C | 77% | 1014 hPa | 0 mm | - | - | - |
| 1787466044 | 31.11° C | 77% | 1013.9 hPa | 0 mm | - | - | - |
| 1787465145 | 31.11° C | 75% | 1013.9 hPa | 0 mm | - | - | - |
| 1787464292 | 31.67° C | 76% | 1013.9 hPa | 0 mm | - | - | - |
| 1787464244 | 31.67° C | 76% | 1014 hPa | 0 mm | - | - | - |
| 1787463345 | 31.67° C | 75% | 1014.1 hPa | 0 mm | - | - | - |
| 1787462445 | 31.11° C | 75% | 1014.3 hPa | 0 mm | - | - | - |
| 1787461545 | 31.11° C | 76% | 1014.3 hPa | 0 mm | - | - | - |
| 1787460645 | 31.67° C | 75% | 1014.3 hPa | 0 mm | - | - | - |
| 1787459745 | 32.22° C | 73% | 1014.2 hPa | 0 mm | - | - | - |
| 1787458893 | 31.67° C | 75% | 1014.5 hPa | 0 mm | - | - | - |
| 1787458846 | 31.67° C | 76% | 1014.4 hPa | 0 mm | - | - | - |
| 1787457944 | 31.67° C | 75% | 1014.4 hPa | 0 mm | - | - | - |
| 1787457044 | 31.67° C | 76% | 1014.6 hPa | 0 mm | - | - | - |
* Rain latest hour (hover to see other rain measurements)
** Current wind speed in m/s (hover to see current wind gust speed)